,,Stat1,,Stat2,,Stat3,,Stat4,,Wind1,,Wind1,
time,status,PR1M_SUM,status,RH1M_AVG,status,SR1M_AVG,status,TA1M_AVG,status,W1dAve1m,status,W1sAve1m,
1999-12-30, 00:01:00,VALID,0,VALID,87.2321,VALID,0,VALID,19.8526,VALID,186,VALID,0.926282,
1999-12-30, 00:02:00,VALID,0,VALID,87.4254,VALID,-0.0169808,VALID,19.8591,VALID,189,VALID,1.01563,
1999-12-30, 00:03:00,VALID,0,VALID,87.6314,VALID,-0.0169808,VALID,19.8432,VALID,196,VALID,1.07227,
1999-12-30, 00:04:00,VALID,0,VALID,87.5729,VALID,0,VALID,19.8012,VALID,193,VALID,1.31342,
1999-12-30, 00:05:00,VALID,0,VALID,87.3847,VALID,0,VALID,19.7979,VALID,193,VALID,1.25267,
1999-12-30, 00:06:00,VALID,0,VALID,87.1202,VALID,0.0169808,VALID,19.8138,VALID,191,VALID,1.17508,
1999-12-30, 00:07:00,VALID,0,VALID,87.1583,VALID,-0.0169808,VALID,19.8534,VALID,193,VALID,0.834766,
1999-12-30, 00:08:00,VALID,0,VALID,87.419,VALID,0,VALID,19.8499,VALID,210,VALID,1.02821,
1999-12-30, 00:09:00,VALID,0,VALID,87.6848,VALID,-0.0169808,VALID,19.827,VALID,211,VALID,0.962171,
1999-12-30, 00:10:00,VALID,0,VALID,87.831,VALID,0.0169808,VALID,19.8039,VALID,195,VALID,1.06365,
1999-12-30, 00:11:00,VALID,0,VALID,87.9073,VALID,0,VALID,19.782,VALID,194,VALID,1.19727,
1999-12-30, 00:12:00,VALID,0,VALID,87.8488,VALID,0.0169808,VALID,19.7912,VALID,192,VALID,1.44911,
1999-12-30, 00:13:00,VALID,0,VALID,87.8043,VALID,0,VALID,19.8141,VALID,194,VALID,1.29207,
1999-12-30, 00:14:00,VALID,0,VALID,87.6174,VALID,0,VALID,19.8106,VALID,192,VALID,2.01585,
1999-12-30, 00:15:00,VALID,0,VALID,87.5385,VALID,0,VALID,19.8397,VALID,204,VALID,1.41036,
1999-12-30, 00:16:00,VALID,0,VALID,87.475,VALID,0.0169808,VALID,19.8529,VALID,220,VALID,0.985403,
1999-12-30, 00:17:00,VALID,0,VALID,87.4953,VALID,0,VALID,19.8593,VALID,220,VALID,1.32754,
1999-12-30, 00:18:00,VALID,0,VALID,87.4877,VALID,0,VALID,19.8591,VALID,198,VALID,1.23763,
1999-12-30, 00:19:00,VALID,0,VALID,87.6453,VALID,0,VALID,19.8656,VALID,196,VALID,1.08573,
1999-12-30, 00:20:00,VALID,0,VALID,87.9505,VALID,0.0169808,VALID,19.8402,VALID,186,VALID,0.886029,
1999-12-30, 00:21:00,VALID,0,VALID,88.1832,VALID,0,VALID,19.7785,VALID,195,VALID,1.41189,
1999-12-30, 00:22:00,VALID,0,VALID,88.0637,VALID,0.0339617,VALID,19.743,VALID,192,VALID,1.21073,
1999-12-30, 00:23:00,VALID,0,VALID,88.112,VALID,0,VALID,19.7462,VALID,187,VALID,1.14902,
1999-12-30, 00:24:00,VALID,0,VALID,88.229,VALID,-0.0169808,VALID,19.7303,VALID,192,VALID,1.30882,
1999-12-30, 00:25:00,VALID,0,VALID,88.5456,VALID,-0.0849042,VALID,19.7124,VALID,179,VALID,0.919202,
1999-12-30, 00:26:00,VALID,0,VALID,88.6563,VALID,-0.0849042,VALID,19.6569,VALID,187,VALID,1.60777,
1999-12-30, 00:27:00,VALID,0,VALID,88.6118,VALID,-0.101885,VALID,19.6437,VALID,193,VALID,1.61758,
1999-12-30, 00:28:00,VALID,0,VALID,88.5113,VALID,-0.0849042,VALID,19.6703,VALID,210,VALID,1.10048,
1999-12-30, 00:29:01,VALID,0,VALID,88.3574,VALID,-0.101885,VALID,19.6892,VALID,213,VALID,1.08141,
1999-12-30, 00:30:00,VALID,0,VALID,88.3485,VALID,-0.101885,VALID,19.7057,VALID,188,VALID,0.925551,
1999-12-30, 00:31:00,VALID,0,VALID,88.3841,VALID,-0.0849042,VALID,19.6957,VALID,188,VALID,1.21484,
1999-12-30, 00:32:00,VALID,0,VALID,88.3079,VALID,-0.101885,VALID,19.6895,VALID,187,VALID,1.36824,
1999-12-30, 00:33:00,VALID,0,VALID,88.3689,VALID,-0.101885,VALID,19.7089,VALID,185,VALID,1.19671,
1999-12-30, 00:34:00,VALID,0,VALID,88.5189,VALID,-0.101885,VALID,19.6997,VALID,187,VALID,0.800322,
1999-12-30, 00:35:00,VALID,0,VALID,88.9208,VALID,-0.118866,VALID,19.6445,VALID,164,VALID,1.21423,
1999-12-30, 00:36:00,VALID,0,VALID,89.1458,VALID,-0.101885,VALID,19.5671,VALID,183,VALID,1.55469,
1999-12-30, 00:37:00,VALID,0,VALID,89.3696,VALID,-0.118866,VALID,19.5184,VALID,190,VALID,0.940234,
1999-12-30, 00:38:00,VALID,0,VALID,89.5591,VALID,-0.118866,VALID,19.4925,VALID,192,VALID,1.50217,
1999-12-30, 00:39:00,VALID,0,VALID,89.535,VALID,-0.0679233,VALID,19.5047,VALID,183,VALID,1.60033,
1999-12-30, 00:40:00,VALID,0,VALID,89.3849,VALID,0,VALID,19.5371,VALID,198,VALID,1.86351,
1999-12-30, 00:41:00,VALID,0,VALID,89.3022,VALID,0,VALID,19.5726,VALID,191,VALID,1.95964,
1999-12-30, 00:42:00,VALID,0,VALID,89.4091,VALID,-0.0169808,VALID,19.5627,VALID,191,VALID,1.56672,
1999-12-30, 00:43:00,VALID,0,VALID,89.4167,VALID,-0.0169808,VALID,19.5497,VALID,196,VALID,1.3959,
1999-12-30, 00:44:00,VALID,0,VALID,89.5286,VALID,0,VALID,19.5299,VALID,198,VALID,1.12868,
1999-12-30, 00:45:00,VALID,0,VALID,89.568,VALID,0,VALID,19.5107,VALID,198,VALID,1.76295,
1999-12-30, 00:46:00,VALID,0,VALID,89.6036,VALID,0,VALID,19.4876,VALID,198,VALID,1.33574,
1999-12-30, 00:47:00,VALID,0,VALID,89.4803,VALID,0,VALID,19.4938,VALID,188,VALID,1.9998,
1999-12-30, 00:48:00,VALID,0,VALID,89.4103,VALID,-0.0169808,VALID,19.51,VALID,182,VALID,1.52409,
1999-12-30, 00:49:00,VALID,0,VALID,89.4383,VALID,0,VALID,19.5075,VALID,180,VALID,1.40851,
1999-12-30, 00:50:00,VALID,0,VALID,89.4294,VALID,0.0339617,VALID,19.5008,VALID,196,VALID,1.61144,
1999-12-30, 00:51:00,VALID,0,VALID,89.685,VALID,0,VALID,19.4881,VALID,191,VALID,1.1684,
1999-12-30, 00:52:00,VALID,0,VALID,89.6418,VALID,0,VALID,19.4486,VALID,197,VALID,1.35008,
1999-12-30, 00:53:00,VALID,0,VALID,89.5273,VALID,0,VALID,19.4724,VALID,192,VALID,1.63161,
1999-12-30, 00:54:00,VALID,0,VALID,89.4917,VALID,-0.0169808,VALID,19.4916,VALID,191,VALID,1.5903,
1999-12-30, 00:55:00,VALID,0,VALID,89.5515,VALID,0,VALID,19.4655,VALID,185,VALID,1.32381,
1999-12-30, 00:56:00,VALID,0,VALID,89.362,VALID,0.0169808,VALID,19.4625,VALID,191,VALID,1.53187,
1999-12-30, 00:57:00,VALID,0,VALID,89.3073,VALID,0.0169808,VALID,19.4888,VALID,177,VALID,1.08359,
1999-12-30, 00:58:00,VALID,0,VALID,89.2666,VALID,0.0169808,VALID,19.4749,VALID,188,VALID,1.2819,
1999-12-30, 00:59:00,VALID,0,VALID,89.2183,VALID,0.0169808,VALID,19.4756,VALID,186,VALID,1.46998,
1999-12-30, 01:00:00,VALID,0,VALID,89.1191,VALID,0,VALID,19.4853,VALID,185,VALID,1.5972,
1999-12-30, 01:01:00,VALID,0,VALID,89.006,VALID,-0.0169808,VALID,19.4983,VALID,196,VALID,1.79731,
1999-12-30, 01:02:00,VALID,0,VALID,88.9144,VALID,0,VALID,19.5435,VALID,198,VALID,1.33953,
1999-12-30, 01:03:00,VALID,0,VALID,89.1242,VALID,0,VALID,19.5405,VALID,186,VALID,1.05078,
1999-12-30, 01:04:00,VALID,0,VALID,89.3455,VALID,0,VALID,19.5015,VALID,178,VALID,1.04159,
1999-12-30, 01:05:00,VALID,0,VALID,89.5222,VALID,0.0169808,VALID,19.4525,VALID,181,VALID,1.08614,
1999-12-30, 01:06:00,VALID,0,VALID,89.7677,VALID,0,VALID,19.4267,VALID,189,VALID,1.30849,
1999-12-30, 01:07:00,VALID,0,VALID,89.8147,VALID,0.0169808,VALID,19.4073,VALID,217,VALID,1.30684,
1999-12-30, 01:08:00,VALID,0,VALID,89.7053,VALID,0.0169808,VALID,19.4103,VALID,182,VALID,1.31619,
1999-12-30, 01:09:00,VALID,0,VALID,89.6507,VALID,0.0169808,VALID,19.4299,VALID,182,VALID,1.00226,
1999-12-30, 01:10:00,VALID,0,VALID,89.6799,VALID,-0.0849042,VALID,19.4279,VALID,192,VALID,0.972656,
1999-12-30, 01:11:00,VALID,0,VALID,89.5439,VALID,-0.0849042,VALID,19.4346,VALID,192,VALID,1.51997,
1999-12-30, 01:12:00,VALID,0,VALID,89.4688,VALID,-0.0849042,VALID,19.4567,VALID,193,VALID,1.40815,
1999-12-30, 01:13:01,VALID,0,VALID,89.39,VALID,-0.101885,VALID,19.4806,VALID,207,VALID,1.52865,
1999-12-30, 01:14:00,VALID,0,VALID,89.2336,VALID,-0.0849042,VALID,19.49,VALID,222,VALID,1.29343,
1999-12-30, 01:15:00,VALID,0,VALID,89.0759,VALID,-0.101885,VALID,19.5159,VALID,202,VALID,1.066,
1999-12-30, 01:16:00,VALID,0,VALID,88.9348,VALID,-0.101885,VALID,19.5448,VALID,211,VALID,1.26583,
1999-12-30, 01:17:00,VALID,0,VALID,88.8432,VALID,-0.0509425,VALID,19.5609,VALID,200,VALID,1.0873,
1999-12-30, 01:18:00,VALID,0,VALID,88.7516,VALID,-0.0849042,VALID,19.5739,VALID,214,VALID,1.04514,
1999-12-30, 01:19:00,VALID,0,VALID,88.7809,VALID,-0.0849042,VALID,19.5801,VALID,192,VALID,1.15666,
1999-12-30, 01:20:00,VALID,0,VALID,88.5838,VALID,-0.0849042,VALID,19.5868,VALID,207,VALID,1.81434,
1999-12-30, 01:21:00,VALID,0,VALID,88.1514,VALID,-0.101885,VALID,19.6679,VALID,202,VALID,1.92817,
1999-12-30, 01:22:00,VALID,0,VALID,87.9607,VALID,-0.0849042,VALID,19.7196,VALID,198,VALID,2.01457,
1999-12-30, 01:23:01,VALID,0,VALID,87.7242,VALID,-0.0679233,VALID,19.7711,VALID,197,VALID,1.9002,
1999-12-30, 01:24:00,VALID,0,VALID,87.5881,VALID,-0.0849042,VALID,19.79,VALID,185,VALID,1.82698,
1999-12-30, 01:25:00,VALID,0,VALID,87.3236,VALID,0,VALID,19.8372,VALID,193,VALID,2.16509,
1999-12-30, 01:26:00,VALID,0,VALID,87.1303,VALID,0.0169808,VALID,19.8957,VALID,205,VALID,1.72396,
1999-12-30, 01:27:00,VALID,0,VALID,86.9638,VALID,0.0169808,VALID,19.9153,VALID,199,VALID,1.91699,
1999-12-30, 01:28:00,VALID,0,VALID,87.1138,VALID,0.0509425,VALID,19.8989,VALID,205,VALID,1.43898,
1999-12-30, 01:29:00,VALID,0,VALID,87.1914,VALID,0.0509425,VALID,19.8924,VALID,187,VALID,1.65317,
1999-12-30, 01:30:00,VALID,0,VALID,87.3274,VALID,0,VALID,19.8668,VALID,199,VALID,1.44187,
1999-12-30, 01:31:00,VALID,0,VALID,87.3338,VALID,0.0169808,VALID,19.8372,VALID,204,VALID,1.89431,
1999-12-30, 01:32:00,VALID,0,VALID,87.2384,VALID,0,VALID,19.8467,VALID,206,VALID,1.63366,
1999-12-30, 01:33:00,VALID,0,VALID,87.3541,VALID,0.0339617,VALID,19.8501,VALID,194,VALID,1.39964,
1999-12-30, 01:34:01,VALID,0,VALID,87.4902,VALID,0.0339617,VALID,19.8372,VALID,199,VALID,1.43612,
1999-12-30, 01:35:01,VALID,0,VALID,87.5983,VALID,0.0339617,VALID,19.8081,VALID,184,VALID,1.4375,
1999-12-30, 01:36:00,VALID,0,VALID,87.6988,VALID,0,VALID,19.7917,VALID,189,VALID,1.45313,
1999-12-30, 01:37:00,VALID,0,VALID,87.5207,VALID,0,VALID,19.7949,VALID,187,VALID,1.57266,
1999-12-30, 01:38:00,VALID,0,VALID,87.4114,VALID,0.0169808,VALID,19.8409,VALID,181,VALID,1.60829,
1999-12-30, 01:39:00,VALID,0,VALID,87.1685,VALID,0,VALID,19.8825,VALID,189,VALID,1.3639,
1999-12-30, 01:40:00,VALID,0,VALID,87.1431,VALID,-0.0849042,VALID,19.9071,VALID,187,VALID,1.03722,
1999-12-30, 01:41:00,VALID,0,VALID,87.227,VALID,-0.0849042,VALID,19.8745,VALID,185,VALID,1.31076,
1999-12-30, 01:42:00,VALID,0,VALID,87.2957,VALID,-0.0679233,VALID,19.8608,VALID,188,VALID,1.32707,
1999-12-30, 01:43:00,VALID,0,VALID,87.4482,VALID,-0.0679233,VALID,19.8414,VALID,210,VALID,1.03359,
1999-12-30, 01:44:00,VALID,0,VALID,87.569,VALID,-0.0849042,VALID,19.833,VALID,211,VALID,1.40028,
1999-12-30, 01:45:00,VALID,0,VALID,87.7051,VALID,-0.0849042,VALID,19.79,VALID,227,VALID,1.044,
1999-12-30, 01:46:01,VALID,0,VALID,88.0052,VALID,-0.101885,VALID,19.7452,VALID,210,VALID,1.43229,
1999-12-30, 01:47:00,VALID,0,VALID,88.3994,VALID,-0.0849042,VALID,19.6674,VALID,206,VALID,1.08242,
1999-12-30, 01:48:00,VALID,0,VALID,88.7809,VALID,-0.0849042,VALID,19.5967,VALID,210,VALID,1.04753,
1999-12-30, 01:49:00,VALID,0,VALID,88.9373,VALID,-0.101885,VALID,19.5482,VALID,206,VALID,0.771793,
1999-12-30, 01:50:00,VALID,0,VALID,89.1166,VALID,-0.101885,VALID,19.5157,VALID,191,VALID,0.995634,
1999-12-30, 01:51:00,VALID,0,VALID,89.3569,VALID,-0.101885,VALID,19.4672,VALID,189,VALID,0.970052,
1999-12-30, 01:52:00,VALID,0,VALID,89.4968,VALID,-0.101885,VALID,19.4508,VALID,199,VALID,0.708404,
1999-12-30, 01:53:00,VALID,0,VALID,89.7104,VALID,-0.101885,VALID,19.4152,VALID,200,VALID,0.949319,
1999-12-30, 01:54:00,VALID,0,VALID,89.7588,VALID,-0.0849042,VALID,19.3931,VALID,209,VALID,0.936811,
1999-12-30, 01:55:00,VALID,0,VALID,89.7168,VALID,-0.0339617,VALID,19.3819,VALID,204,VALID,0.81065,
1999-12-30, 01:56:00,VALID,0,VALID,89.8071,VALID,-0.0169808,VALID,19.3724,VALID,163,VALID,1.10362,
1999-12-30, 01:57:01,VALID,0,VALID,90.2738,VALID,-0.0169808,VALID,19.2951,VALID,203,VALID,1.06113,
1999-12-30, 01:58:00,VALID,0,VALID,90.2509,VALID,-0.0169808,VALID,19.266,VALID,222,VALID,1.44661,
1999-12-30, 01:59:00,VALID,0,VALID,90.0461,VALID,-0.0169808,VALID,19.2852,VALID,216,VALID,1.25925,
1999-12-30, 02:00:00,VALID,0,VALID,89.9075,VALID,-0.0169808,VALID,19.312,VALID,208,VALID,1.28079,
1999-12-30, 02:01:00,VALID,0,VALID,89.8592,VALID,0,VALID,19.314,VALID,212,VALID,1.37413,
1999-12-30, 02:02:00,VALID,0,VALID,89.7066,VALID,0,VALID,19.3369,VALID,225,VALID,1.6951,
1999-12-30, 02:03:00,VALID,0,VALID,89.6837,VALID,-0.0339617,VALID,19.3406,VALID,223,VALID,1.59687,
1999-12-30, 02:04:00,VALID,0,VALID,89.7524,VALID,0,VALID,19.3235,VALID,216,VALID,1.62362,
1999-12-30, 02:05:00,VALID,0,VALID,89.7893,VALID,-0.0169808,VALID,19.3207,VALID,202,VALID,1.31065,
1999-12-30, 02:06:00,VALID,0,VALID,90.1847,VALID,0,VALID,19.2886,VALID,190,VALID,1.33694,
1999-12-30, 02:07:00,VALID,0,VALID,90.6031,VALID,-0.0339617,VALID,19.2145,VALID,205,VALID,1.26172,
1999-12-30, 02:08:01,VALID,0,VALID,90.4976,VALID,0,VALID,19.188,VALID,209,VALID,1.62826,
1999-12-30, 02:09:00,VALID,0,VALID,90.2585,VALID,-0.0169808,VALID,19.2402,VALID,199,VALID,1.4778,
1999-12-30, 02:10:00,VALID,0,VALID,90.0957,VALID,-0.0849042,VALID,19.2767,VALID,195,VALID,1.11029,
1999-12-30, 02:11:00,VALID,0,VALID,90.1962,VALID,-0.101885,VALID,19.2608,VALID,200,VALID,1.12977,
1999-12-30, 02:12:00,VALID,0,VALID,90.289,VALID,-0.135847,VALID,19.2478,VALID,187,VALID,0.921242,
1999-12-30, 02:13:00,VALID,0,VALID,90.467,VALID,-0.101885,VALID,19.225,VALID,182,VALID,1.10797,
1999-12-30, 02:14:00,VALID,0,VALID,90.4441,VALID,-0.118866,VALID,19.222,VALID,204,VALID,1.00988,
1999-12-30, 02:15:00,VALID,0,VALID,90.3284,VALID,-0.101885,VALID,19.2349,VALID,214,VALID,1.00843,
1999-12-30, 02:16:00,VALID,0,VALID,90.2852,VALID,-0.135847,VALID,19.2511,VALID,198,VALID,0.886102,
1999-12-30, 02:17:00,VALID,0,VALID,90.364,VALID,-0.118866,VALID,19.2319,VALID,157,VALID,0.830664,
1999-12-30, 02:18:00,VALID,0,VALID,90.757,VALID,-0.101885,VALID,19.164,VALID,153,VALID,0.976997,
1999-12-30, 02:19:01,VALID,0,VALID,90.982,VALID,-0.101885,VALID,19.125,VALID,175,VALID,0.804276,
1999-12-30, 02:20:00,VALID,0,VALID,91.1791,VALID,-0.118866,VALID,19.1061,VALID,187,VALID,1.12638,
1999-12-30, 02:21:00,VALID,0,VALID,91.2262,VALID,-0.135847,VALID,19.1103,VALID,209,VALID,0.998481,
1999-12-30, 02:22:00,VALID,0,VALID,91.1779,VALID,-0.118866,VALID,19.0927,VALID,198,VALID,0.963894,
1999-12-30, 02:23:00,VALID,0,VALID,91.1321,VALID,-0.118866,VALID,19.0924,VALID,204,VALID,0.953125,
1999-12-30, 02:24:00,VALID,0,VALID,91.2389,VALID,-0.101885,VALID,19.0733,VALID,202,VALID,1.08111,
1999-12-30, 02:25:00,VALID,0,VALID,91.2809,VALID,-0.0169808,VALID,19.0432,VALID,224,VALID,1.19285,
1999-12-30, 02:26:00,VALID,0,VALID,91.5199,VALID,0,VALID,19.0044,VALID,227,VALID,1.13462,
1999-12-30, 02:27:00,VALID,0,VALID,91.8187,VALID,-0.0169808,VALID,18.9522,VALID,220,VALID,1.05195,
1999-12-30, 02:28:00,VALID,0,VALID,92.1583,VALID,-0.0339617,VALID,18.9042,VALID,223,VALID,1.47135,
1999-12-30, 02:29:01,VALID,0,VALID,92.3528,VALID,-0.0169808,VALID,18.8779,VALID,221,VALID,1.5697,
1999-12-30, 02:30:01,VALID,0,VALID,92.3541,VALID,-0.0169808,VALID,18.8943,VALID,222,VALID,1.31687,
1999-12-30, 02:31:00,VALID,0,VALID,92.3554,VALID,0,VALID,18.8874,VALID,191,VALID,1.27409,
1999-12-30, 02:32:00,VALID,0,VALID,92.3592,VALID,-0.0169808,VALID,18.8846,VALID,179,VALID,1.58383,
1999-12-30, 02:33:00,VALID,0,VALID,92.0337,VALID,-0.0509425,VALID,18.9137,VALID,189,VALID,1.42388,
1999-12-30, 02:34:00,VALID,0,VALID,91.6395,VALID,-0.0169808,VALID,18.9786,VALID,196,VALID,1.2438,
1999-12-30, 02:35:00,VALID,0,VALID,91.3686,VALID,0,VALID,19.0432,VALID,176,VALID,1.33121,
1999-12-30, 02:36:00,VALID,0,VALID,91.3037,VALID,0,VALID,19.0527,VALID,182,VALID,1.22492,
1999-12-30, 02:37:00,VALID,0,VALID,91.2592,VALID,0,VALID,19.0494,VALID,189,VALID,1.39004,
1999-12-30, 02:38:00,VALID,0,VALID,91.1829,VALID,-0.0339617,VALID,19.0756,VALID,184,VALID,1.61198,
1999-12-30, 02:39:00,VALID,0,VALID,91.0189,VALID,-0.0169808,VALID,19.121,VALID,194,VALID,1.03372,
1999-12-30, 02:40:00,VALID,0,VALID,90.9235,VALID,0.0509425,VALID,19.1261,VALID,186,VALID,1.91521,
1999-12-30, 02:41:01,VALID,0,VALID,90.8078,VALID,0.101885,VALID,19.136,VALID,201,VALID,1.4503,
1999-12-30, 02:42:00,VALID,0,VALID,90.8345,VALID,0.0679233,VALID,19.1291,VALID,194,VALID,1.45735,
1999-12-30, 02:43:00,VALID,0,VALID,90.7112,VALID,0.0679233,VALID,19.1323,VALID,200,VALID,1.72129,
1999-12-30, 02:44:00,VALID,0,VALID,90.5649,VALID,0.0849042,VALID,19.1644,VALID,208,VALID,1.16682,
1999-12-30, 02:45:00,VALID,0,VALID,90.453,VALID,0.0849042,VALID,19.2071,VALID,207,VALID,1.08758,
1999-12-30, 02:46:00,VALID,0,VALID,90.392,VALID,0.0849042,VALID,19.2002,VALID,215,VALID,1.11298,
1999-12-30, 02:47:00,VALID,0,VALID,90.2725,VALID,0.0849042,VALID,19.2128,VALID,218,VALID,1.26348,
1999-12-30, 02:48:00,VALID,0,VALID,90.1924,VALID,0.0849042,VALID,19.2193,VALID,218,VALID,1.29167,
1999-12-30, 02:49:00,VALID,0,VALID,90.2102,VALID,0.101885,VALID,19.2225,VALID,213,VALID,1.48787,
1999-12-30, 02:50:00,VALID,0,VALID,90.2661,VALID,0.0849042,VALID,19.2069,VALID,225,VALID,1.20979,
1999-12-30, 02:51:00,VALID,0,VALID,90.4238,VALID,0.0849042,VALID,19.2069,VALID,211,VALID,1.19618,
1999-12-30, 02:52:00,VALID,0,VALID,90.6768,VALID,0.0679233,VALID,19.1549,VALID,204,VALID,0.978674,
1999-12-30, 02:53:00,VALID,0,VALID,90.9973,VALID,0.101885,VALID,19.1134,VALID,201,VALID,1.05509,
1999-12-30, 02:54:00,VALID,0,VALID,90.982,VALID,0.0849042,VALID,19.1092,VALID,201,VALID,0.951746,
1999-12-30, 02:55:00,VALID,0,VALID,90.9261,VALID,-0.0339617,VALID,19.1337,VALID,205,VALID,0.586554,
1999-12-30, 02:56:00,VALID,0,VALID,90.949,VALID,-0.0509425,VALID,19.1332,VALID,227,VALID,0.808594,
1999-12-30, 02:57:00,VALID,0,VALID,90.8994,VALID,-0.0169808,VALID,19.1404,VALID,246,VALID,0.648633,
1999-12-30, 02:58:00,VALID,0,VALID,90.9426,VALID,0,VALID,19.1236,VALID,223,VALID,0.713759,
1999-12-30, 02:59:00,VALID,0,VALID,90.9935,VALID,0,VALID,19.1141,VALID,247,VALID,0.426192,
1999-12-30, 03:00:00,VALID,0,VALID,91.1028,VALID,-0.0509425,VALID,19.1049,VALID,200,VALID,0.519531,
1999-12-30, 03:01:00,VALID,0,VALID,91.1219,VALID,-0.0169808,VALID,19.0783,VALID,238,VALID,0.318359,
1999-12-30, 03:02:00,VALID,0,VALID,91.1728,VALID,0,VALID,19.0723,VALID,282,VALID,0.285262,
1999-12-30, 03:03:00,VALID,0,VALID,91.2008,VALID,0,VALID,19.0691,VALID,280,VALID,0.220898,
1999-12-30, 03:04:00,VALID,0,VALID,91.3139,VALID,0,VALID,19.04,VALID,278,VALID,0.0611213,
1999-12-30, 03:05:00,VALID,0,VALID,91.6369,VALID,-0.0339617,VALID,19.0139,VALID,278,VALID,0.242599,
1999-12-30, 03:06:00,VALID,0,VALID,91.8874,VALID,0,VALID,18.9562,VALID,278,VALID,0.186298,
1999-12-30, 03:07:00,VALID,0,VALID,91.7895,VALID,-0.0169808,VALID,18.8819,VALID,277,VALID,0.231055,
1999-12-30, 03:08:00,VALID,0,VALID,91.9052,VALID,-0.0339617,VALID,18.7489,VALID,138,VALID,0.383464,
1999-12-30, 03:09:00,VALID,0,VALID,92.8818,VALID,-0.0339617,VALID,18.6623,VALID,117,VALID,0.105263,
1999-12-30, 03:10:00,VALID,0,VALID,93.5532,VALID,-0.0169808,VALID,18.6041,VALID,117,VALID,0.0664063,
1999-12-30, 03:11:00,VALID,0,VALID,93.6308,VALID,-0.0339617,VALID,18.5949,VALID,117,VALID,0,
1999-12-30, 03:12:00,VALID,0,VALID,93.4731,VALID,0,VALID,18.5584,VALID,117,VALID,0,
1999-12-30, 03:13:01,VALID,0,VALID,93.8648,VALID,0,VALID,18.5162,VALID,117,VALID,0,
1999-12-30, 03:14:00,VALID,0,VALID,93.5113,VALID,-0.0169808,VALID,18.4816,VALID,117,VALID,0,
1999-12-30, 03:15:00,VALID,0,VALID,93.7961,VALID,-0.0509425,VALID,18.3712,VALID,117,VALID,0,
1999-12-30, 03:16:00,VALID,0,VALID,94.3594,VALID,-0.0509425,VALID,18.3135,VALID,118,VALID,0,
1999-12-30, 03:17:00,VALID,0,VALID,95.0435,VALID,-0.0169808,VALID,18.2874,VALID,123,VALID,0,
1999-12-30, 03:18:00,VALID,0,VALID,94.8795,VALID,-0.0509425,VALID,18.2745,VALID,191,VALID,0.168186,
1999-12-30, 03:19:00,VALID,0,VALID,95.2979,VALID,-0.0509425,VALID,18.275,VALID,217,VALID,0.764186,
1999-12-30, 03:20:00,VALID,0,VALID,95.3157,VALID,-0.0339617,VALID,18.3073,VALID,223,VALID,0.794347,
1999-12-30, 03:21:00,VALID,0,VALID,94.9049,VALID,0,VALID,18.3617,VALID,199,VALID,0.943142,
1999-12-30, 03:22:00,VALID,0,VALID,94.5603,VALID,0,VALID,18.4197,VALID,221,VALID,1.47635,
1999-12-30, 03:23:01,VALID,0,VALID,94.0161,VALID,0,VALID,18.5102,VALID,217,VALID,1.25469,
1999-12-30, 03:24:00,VALID,0,VALID,93.5672,VALID,0,VALID,18.6141,VALID,201,VALID,0.955423,
1999-12-30, 03:25:00,VALID,0,VALID,93.3383,VALID,-0.0169808,VALID,18.6849,VALID,190,VALID,0.688322,
1999-12-30, 03:26:00,VALID,0,VALID,93.2048,VALID,0,VALID,18.7108,VALID,174,VALID,0.866386,
1999-12-30, 03:27:00,VALID,0,VALID,93.1399,VALID,-0.0169808,VALID,18.7267,VALID,171,VALID,0.861719,
1999-12-30, 03:28:00,VALID,0,VALID,93.0052,VALID,0,VALID,18.7528,VALID,180,VALID,1.03147,
1999-12-30, 03:29:00,VALID,0,VALID,92.7267,VALID,-0.0509425,VALID,18.7976,VALID,183,VALID,1.30037,
1999-12-30, 03:30:00,VALID,0,VALID,92.4698,VALID,0,VALID,18.8692,VALID,183,VALID,1.00345,
1999-12-30, 03:31:00,VALID,0,VALID,92.4635,VALID,-0.0169808,VALID,18.8853,VALID,184,VALID,0.889757,
1999-12-30, 03:32:00,VALID,0,VALID,92.4838,VALID,0,VALID,18.856,VALID,184,VALID,0.965794,
1999-12-30, 03:33:00,VALID,0,VALID,92.7699,VALID,-0.0339617,VALID,18.8048,VALID,178,VALID,0.902444,
1999-12-30, 03:34:00,VALID,0,VALID,93.0293,VALID,0,VALID,18.7498,VALID,178,VALID,0.956572,
1999-12-30, 03:35:00,VALID,0,VALID,93.262,VALID,-0.0169808,VALID,18.7108,VALID,174,VALID,1.01645,
1999-12-30, 03:36:00,VALID,0,VALID,93.3523,VALID,-0.0509425,VALID,18.7143,VALID,173,VALID,0.89741,
1999-12-30, 03:37:00,VALID,0,VALID,93.351,VALID,0,VALID,18.6852,VALID,161,VALID,1.0459,
1999-12-30, 03:38:00,VALID,0,VALID,93.5151,VALID,-0.0339617,VALID,18.6531,VALID,161,VALID,0.983941,
1999-12-30, 03:39:00,VALID,0,VALID,93.4362,VALID,-0.0339617,VALID,18.5979,VALID,143,VALID,1.0514,
1999-12-30, 03:40:00,VALID,0,VALID,93.6295,VALID,-0.0509425,VALID,18.5529,VALID,154,VALID,0.717831,
1999-12-30, 03:41:00,VALID,0,VALID,93.7173,VALID,-0.0509425,VALID,18.4977,VALID,151,VALID,0.732205,
1999-12-30, 03:42:00,VALID,0,VALID,93.9538,VALID,-0.0169808,VALID,18.4425,VALID,157,VALID,0.805321,
1999-12-30, 03:43:00,VALID,0,VALID,94.4281,VALID,-0.0169808,VALID,18.4202,VALID,168,VALID,0.854297,
1999-12-30, 03:44:00,VALID,0,VALID,94.3365,VALID,-0.0339617,VALID,18.4298,VALID,161,VALID,0.694164,
1999-12-30, 03:45:00,VALID,0,VALID,94.348,VALID,-0.0339617,VALID,18.4035,VALID,169,VALID,0.796875,
1999-12-30, 03:46:00,VALID,0,VALID,94.4497,VALID,-0.0169808,VALID,18.4035,VALID,181,VALID,0.888822,
1999-12-30, 03:47:00,VALID,0,VALID,94.4433,VALID,-0.0339617,VALID,18.4107,VALID,176,VALID,0.938477,
1999-12-30, 03:48:00,VALID,0,VALID,94.3912,VALID,-0.0169808,VALID,18.41,VALID,184,VALID,1.09288,
1999-12-30, 03:49:00,VALID,0,VALID,94.2017,VALID,-0.0339617,VALID,18.4202,VALID,185,VALID,1.14042,
1999-12-30, 03:50:00,VALID,0,VALID,94.0733,VALID,-0.0339617,VALID,18.443,VALID,180,VALID,1.15602,
1999-12-30, 03:51:00,VALID,0,VALID,93.9792,VALID,-0.0679233,VALID,18.4721,VALID,181,VALID,1.15777,
1999-12-30, 03:52:00,VALID,0,VALID,93.8482,VALID,-0.0509425,VALID,18.4977,VALID,184,VALID,1.38091,
1999-12-30, 03:53:00,VALID,0,VALID,93.6155,VALID,-0.0339617,VALID,18.5303,VALID,192,VALID,1.3109,
1999-12-30, 03:54:00,VALID,0,VALID,93.5189,VALID,-0.0509425,VALID,18.5633,VALID,202,VALID,1.09513,
1999-12-30, 03:55:00,VALID,0,VALID,93.3905,VALID,0.0509425,VALID,18.5739,VALID,181,VALID,1.08779,
1999-12-30, 03:56:00,VALID,0,VALID,93.2684,VALID,0.0509425,VALID,18.5676,VALID,161,VALID,0.901933,
1999-12-30, 03:57:00,VALID,0,VALID,93.482,VALID,0.0169808,VALID,18.5293,VALID,161,VALID,0.711328,
1999-12-30, 03:58:00,VALID,0,VALID,93.8431,VALID,0,VALID,18.4963,VALID,177,VALID,0.907986,
1999-12-30, 03:59:00,VALID,0,VALID,93.9169,VALID,0.0509425,VALID,18.503,VALID,174,VALID,1.09252,
1999-12-30, 04:00:00,VALID,0,VALID,93.791,VALID,0.0339617,VALID,18.5,VALID,162,VALID,0.785156,
1999-12-30, 04:01:00,VALID,0,VALID,93.8775,VALID,0.0509425,VALID,18.4739,VALID,167,VALID,0.628255,
1999-12-30, 04:02:00,VALID,0,VALID,94.2208,VALID,0.0339617,VALID,18.4245,VALID,168,VALID,0.604307,
1999-12-30, 04:03:00,VALID,0,VALID,94.4243,VALID,0.0169808,VALID,18.4123,VALID,178,VALID,0.643555,
1999-12-30, 04:04:00,VALID,0,VALID,94.5718,VALID,0.0509425,VALID,18.3862,VALID,182,VALID,0.619485,
1999-12-30, 04:05:00,VALID,0,VALID,94.7167,VALID,0.0509425,VALID,18.3477,VALID,183,VALID,0.714638,